Dewpoint
38 38 41 42 44 45 46 48 49 50 51 52 54 54 53 53 61 64 64 66 66 66 66 65 65 64 64 66 64 65 64 64
38 41 43 43 44 46 46 46 48 49 49 49 48 49 51 50 54 60 63 65 66 65 65 65 65 64 63 65 64 63 63 63
37 38 41 42 43 44 44 45 46 46 47 49 49 50 50 52 53 54 60 61 64 65 65 65 65 64 63 64 63 62 62 63
36 37 39 41 42 43 43 44 44 45 46 47 48 49 49 50 51 50 52 60 62 64 65 66 64 64 62 64 63 62 60 62
35 37 38 39 41 42 43 43 43 43 45 45 45 46 46 48 50 52 51 60 61 63 65 65 64 63 63 63 63 61 60 60
36 36 36 37 40 41 42 42 42 42 43 43 42 43 45 47 49 50 53 53 60 62 64 65 64 63 61 62 63 61 60 59
34 35 36 37 39 40 41 40 40 41 41 41 40 41 42 44 46 48 50 53 56 60 63 64 64 63 63 62 58 61 61 60
34 34 35 36 37 38 39 39 39 40 39 39 39 40 41 42 44 46 48 52 56 57 60 64 64 63 62 62 61 61 61 61
34 34 35 35 36 37 38 38 38 38 38 38 38 39 41 43 45 47 49 52 55 58 60 62 63 63 62 62 60 61 60 59
32 32 34 35 36 37 37 37 36 36 37 37 37 39 41 43 45 47 51 53 55 59 63 63 63 62 62 60 58 58 55 59
30 32 33 34 35 35 36 36 34 36 36 36 36 38 40 42 45 47 53 56 58 60 62 62 62 62 62 59 58 59 61 61
30 31 33 33 34 34 34 35 34 34 34 35 36 36 38 40 41 43 45 49 57 59 61 62 61 62 62 61 60 60 60 60
30 31 31 32 32 32 33 33 33 32 32 34 34 34 36 37 38 41 44 44 51 58 60 60 61 60 60 60 60 59 59 57
29 29 30 30 31 31 32 32 33 32 31 32 32 32 33 35 36 38 40 41 44 52 57 58 60 59 58 58 58 58 56 55
28 28 28 29 29 30 31 31 32 32 31 31 31 31 32 33 34 36 37 38 39 41 51 58 59 59 59 57 56 55 54 55
27 27 27 28 28 29 30 30 31 31 30 30 30 31 31 31 32 33 34 36 36 36 38 41 43 47 47 55 58 56 53 53
26 26 27 28 28 29 29 30 30 30 30 30 31 31 31 30 30 30 30 32 33 34 33 35 36 37 36 44 58 58 57 55
25 26 27 27 30 30 29 29 30 31 30 30 30 31 31 31 30 29 28 28 29 30 32 32 31 32 34 37 46 45 43 41
25 27 28 29 31 30 30 28 28 30 29 29 31 31 31 31 30 29 28 27 26 26 28 30 30 31 32 33 35 36 34 33
Wind_Speed
18 9 12 8 10 8 11 12 13 12 12 11 12 14 15 16 16 16 18 22 24 25 22 19 21 20 18 16 17 15 14 14
17 13 12 9 10 11 13 13 15 16 13 13 13 14 15 14 18 21 17 19 24 24 23 23 19 20 21 19 13 17 13 11
15 12 11 7 7 12 12 14 15 15 14 16 16 16 18 20 21 20 21 23 26 24 24 23 21 22 23 22 22 16 11 18
13 9 9 8 11 11 13 15 16 15 16 15 16 17 18 19 22 23 24 26 22 24 25 22 22 20 11 20 20 23 18 16
12 9 8 8 14 14 14 16 17 17 18 18 19 19 20 21 26 24 23 23 26 25 28 26 23 23 24 22 20 18 17 18
11 9 10 15 15 14 15 17 19 20 19 18 18 20 20 20 23 29 28 28 28 27 27 27 25 21 24 24 20 19 18 16
10 12 14 16 16 15 16 17 19 20 18 19 20 23 24 23 23 26 27 28 24 28 28 26 25 22 21 26 25 25 28 22
10 13 15 15 17 17 17 19 20 20 19 20 22 22 23 26 25 25 29 30 23 24 28 24 24 23 25 22 27 29 23 24
13 14 15 16 17 18 19 21 22 21 21 23 23 22 19 21 24 24 27 30 23 19 39 25 24 24 25 28 28 21 21 17
13 14 15 16 18 18 18 20 21 21 23 23 24 22 22 22 25 26 31 32 28 20 21 19 18 23 23 20 14 17 20 21
14 15 15 16 17 18 17 18 21 22 23 23 22 24 22 22 20 22 21 26 28 17 16 19 22 24 22 24 22 21 22 18
15 15 16 18 18 18 18 20 22 23 24 24 24 25 25 23 21 24 28 29 21 21 23 24 23 23 22 24 24 22 21 16
17 17 19 19 18 19 20 21 23 24 24 24 24 25 25 24 24 24 25 25 24 21 24 22 25 23 22 22 21 20 20 18
17 19 19 19 19 20 20 21 23 25 25 25 25 26 26 27 27 26 24 24 24 25 22 20 17 22 19 21 21 23 22 19
16 17 18 19 20 19 20 21 22 23 24 24 25 25 26 26 25 25 24 22 23 25 23 7 13 17 22 22 20 17 16 16
16 17 18 19 18 19 20 20 22 23 23 23 24 24 25 26 26 26 25 23 22 23 25 23 23 18 10 8 16 20 17 15
14 15 16 17 19 20 19 20 21 21 22 23 23 24 26 28 25 26 27 26 25 21 25 26 23 21 33 20 12 12 9 10
12 13 16 17 18 18 19 19 19 20 20 22 24 24 27 25 26 27 27 28 25 27 26 25 29 27 34 30 17 17 16 16
12 13 15 17 16 18 18 18 19 19 21 22 25 26 25 25 26 26 26 25 27 27 28 26 23 27 33 29 22 20 22 20
Wind_Direction
117 135 77 46 45 17 17 11 354 340 316 295 278 268 274 281 259 233 229 196 200 206 223 229 199 201 208 190 192 183 186 191
114 89 84 46 37 25 11 2 357 349 333 326 312 302 300 264 262 244 248 209 203 211 213 221 201 205 201 185 186 178 181 182
111 100 75 58 34 28 7 359 355 345 334 332 317 304 296 294 296 298 260 237 211 211 216 212 208 208 201 191 181 191 183 170
113 85 61 39 50 27 6 359 350 342 335 328 322 313 304 277 271 276 270 232 218 203 218 213 207 210 213 212 193 183 182 172
86 66 47 33 40 28 8 356 347 346 344 336 325 310 294 290 293 290 274 243 217 206 206 211 203 199 200 205 215 196 180 176
78 59 36 41 31 18 13 360 350 345 341 335 322 305 295 291 288 289 283 277 223 212 199 205 208 204 208 193 183 195 196 173
65 51 40 29 24 16 11 358 348 340 335 327 312 300 294 289 285 285 283 284 260 225 202 202 202 193 197 205 190 211 191 183
53 38 31 21 17 11 3 358 345 335 333 322 310 298 291 285 281 274 275 275 284 269 205 194 191 184 190 203 203 212 189 190
57 44 32 17 11 11 6 358 341 336 334 325 314 302 293 287 281 269 267 267 270 219 223 202 187 183 194 196 210 203 178 204
50 41 33 22 13 12 10 1 342 334 331 325 320 311 309 300 293 275 265 258 258 233 209 204 194 193 195 184 204 217 215 208
39 35 33 29 18 10 9 3 348 339 334 329 326 320 318 310 310 316 315 245 248 231 209 207 205 203 190 195 198 208 206 196
28 28 33 32 15 8 6 359 357 349 340 333 336 334 332 328 340 338 336 326 250 223 205 201 201 194 195 199 202 197 199 203
23 21 22 21 13 2 6 359 357 352 342 342 345 342 342 337 351 344 339 331 335 249 225 202 195 190 185 188 181 186 197 192
21 19 17 10 8 3 3 1 356 354 348 350 350 352 352 349 352 350 352 350 351 343 267 211 191 178 187 187 194 188 193 199
19 14 10 8 6 358 3 0 358 355 354 354 355 354 358 354 356 359 356 2 6 1 358 292 194 203 197 192 204 202 206 209
15 9 7 4 357 1 3 2 2 358 358 357 359 358 4 6 2 6 2 15 18 14 11 28 19 38 8 227 182 203 223 212
12 11 8 1 3 1 4 5 6 2 2 2 2 8 11 10 7 14 13 15 25 25 32 32 21 19 1 335 194 173 181 166
18 12 14 8 6 1 7 8 7 10 5 7 10 13 17 12 14 20 21 17 19 27 31 31 28 21 13 10 94 104 95 82
26 20 17 17 11 10 14 14 15 13 13 13 15 15 17 17 21 23 26 26 28 29 29 28 37 25 25 16 24 80 83 68